This is the latest recevied weather packets stored in our database for station/object HB9FHL-13. If no packets are shown the sender has not sent any weather packets the latest 10 day(s).
| Time | Temp. | Humidity | Pressure | Rain* | Wind** | Luminosity | Snow |
|---|---|---|---|---|---|---|---|
| 1777258449 | 11.67° C | - | 1016.2 hPa | 0 mm | - | - | - |
| 1777258149 | 11.67° C | - | 1018.6 hPa | 0 mm | - | - | - |
| 1777257848 | 11.67° C | - | 1021.4 hPa | 0 mm | - | - | - |
| 1777257548 | 11.67° C | - | 1024.4 hPa | 0 mm | - | - | - |
| 1777257247 | 11.67° C | - | 1019.6 hPa | 0 mm | - | - | - |
| 1777256947 | 11.11° C | - | 1018.9 hPa | 0 mm | - | - | - |
| 1777256646 | 11.67° C | - | 1024.3 hPa | 0 mm | - | - | - |
| 1777256344 | 10.56° C | - | 1017.5 hPa | 0 mm | - | - | - |
| 1777256043 | 11.67° C | - | 1019.8 hPa | 0 mm | - | - | - |
| 1777255743 | 11.11° C | - | 1022.3 hPa | 0 mm | - | - | - |
| 1777255439 | 11.11° C | - | 1022.6 hPa | 0 mm | - | - | - |
| 1777255137 | 12.22° C | - | 1017.3 hPa | 0 mm | - | - | - |
| 1777254837 | 12.22° C | - | 1022.5 hPa | 0 mm | - | - | - |
| 1777254536 | 12.78° C | - | 1018.4 hPa | 0 mm | - | - | - |
| 1777254236 | 12.78° C | - | 1021.4 hPa | 0 mm | - | - | - |
| 1777253935 | 12.22° C | - | 1019.6 hPa | 0 mm | - | - | - |
| 1777253635 | 12.22° C | - | 1017.7 hPa | 0 mm | - | - | - |
| 1777253333 | 13.33° C | - | 1023.1 hPa | 0 mm | - | - | - |
| 1777253033 | 12.22° C | - | 1020.6 hPa | 0 mm | - | - | - |
| 1777252732 | 11.67° C | - | 1023.5 hPa | 0 mm | - | - | - |
| 1777252432 | 12.22° C | - | 1021.5 hPa | 0 mm | - | - | - |
| 1777252130 | 12.78° C | - | 1021 hPa | 0 mm | - | - | - |
| 1777251829 | 12.22° C | - | 1019.6 hPa | 0 mm | - | - | - |
| 1777251529 | 13.33° C | - | 1022.3 hPa | 0 mm | - | - | - |
| 1777251228 | 13.33° C | - | 1027.2 hPa | 0 mm | - | - | - |
* Rain since midnight (hover to see other rain measurements)
** Current wind speed in m/s (hover to see current wind gust speed)